< < Back
Terminal Aerodrome Forecast


Current Version              Previous Versions:   1  2  3  4  5  6  7  8  9  

Terminal Aerodrome Forecast

151
FTUS42 KFFC 031738
TAFPDK
TAF
KPDK 031738Z 0318/0418 35005KT P6SM SCT050
     FM040100 00000KT P6SM FEW080
     FM041700 32004KT P6SM FEW040 SCT250=



Latest METAR

977
SAUS70 KWBC 040500 RRD
MTRPDK
METAR KPDK 040453Z AUTO 00000KT 10SM CLR 25/19 A2996 RMK AO2 SLP124
T02500194 403670217


USA.gov is the U.S. government's official web portal to all federal, state and local government web resources and services.